Showing default

YUNYAO-1 43, 63344

Orbit data source: Space-Track

YUNYAO-1 43, 63344 is a payload satellite owned by Yunyao yuhang (CN) in SSO that was launched on Fri, 21 Mar 2025 UTC via a GUSHENXING 1 launch vehicle from the Jiuquan Satellite Launch Center, China (JSC). Payload-class satellites include a variety of spacecraft equipped with specific instruments for various scientific and technological missions. These include communications satellites like Starlink; space stations such as the ISS; scientific satellites like the Hubble; Earth observation satellites from companies like Planet Labs, Umbra, and HawkEye 360; GPS; miniature CubeSats for education and research; and military/defense satellites.

Loading next visibility...
Identifier
63344, 2025-059A
Orbit
SSO
Last TLE update
6 hours ago
Origin
Manufacturer
Changguang WJ
Mission
Operational spacecraft
Bus & Motor
YY-1, Unknown motor
Mass
~50 kg wet, ~50 kg dry
Launch date (UTC)
2025-03-21 (2 months ago)
Launch vehicle
GUSHENXING 1
Launch site
Jiuquan Satellite Launch Center, China (JSC)
Object type
Payload
Rocket body
Debris
Shape & HBR
Unknown
Radar Cross Section
Medium (>0.1 m² and <1 m²)

Expand to show TLE details & history

TLE from 6 hours ago
0 YUNYAO-1 43
1 63344U 25059A   25128.95991317  .00004916  00000-0  30669-3 0  9990
2 63344  97.5994 308.7364 0014486 118.3167 241.9526 15.09894848  7323
Epoch: 2025-05-08T23:02Z
Definitive object data (Epoch: 2025-05-08T23:02:16.497Z)
Latitude
0.00001°
Longitude
96.14474°
Altitude
544.314 km
Speed
7.587 km/s
True Right ascension
20h 34m 56s
True Declination
0° 00' 00"
Sunlit
Object was in daylight at TLE epoch
Visualization TLE readout
Latitude
21.45945°
Longitude
93.42174°
Altitude
540.273 km
Speed
7.594 km/s
Apparent Right ascension
22h 35m 48s
Apparent Declination
-9° 58' 59"
Sunlit
Object is in daylight
Visualization observer readout
Local Sidereal Time
13:38:23
Azimuth
66.318° ENE
Elevation
-39.742°
Doppler factor
1
Orbital elements
Apogee altitude
543.521 km
Perigee altitude
523.496 km
Semi-major axis
6,911.646 km
Eccentricity
0.0014486
Inclination
97.5994°
RAAN
308.7364°
Arg. of periapsis
118.3167°
True anomaly
241.80622°
Mean anomaly
241.9526°
Eccentric anomaly
241.8794°
Mean motion
3.77721 °/min
BSTAR
0.00030669
Orbital period
95.31 mins
Loading maneuver chart data...
Loading SW <> Apogee altitude chart data...
Loading historical data...
Loading historical data...
Loading historical data...
Loading historical data...
Loading historical data...
Loading historical data...
Loading historical data...
Other satellites on launch #59 in the year 2025 (2025-03-21 UTC)

YUNYAO-1 43 Visibility forecast

Observer location: undefined°, undefined°

Span
Click to sort rows by Start time (UTC) header in descending order
Start Az.
Max El. time (UTC)
Max El. Az.
Max El.
End time (UTC)
End Az.
7 mins2025-05-09 11:52:42.575Z161.905° S2025-05-09 11:56:42.575Z31.685° NE43.603°2025-05-09 11:59:42.575Z351.503° N
5 mins2025-05-10 01:03:42.575Z358.537° N2025-05-10 01:05:42.575Z304.574° NW40.581°2025-05-10 01:08:42.575Z208.13° SW
|